CW9485 Weather Reports


time (UTC)temp
C
wind
direction
speed
KPH
gust
KPH
rain 1hr
cm
rain 24hr
cm
rain mn
cm
humidity
%
barometer
mb
20260504215156 25 171 0.0 0.0 0.00 0.00 0.00 35 987.4
20260504214657 25 172 0.0 0.0 0.00 0.00 0.00 36 987.3
20260504214157 25 176 0.0 0.0 0.00 0.00 0.00 35 987.3
20260504213657 25 172 0.0 0.0 0.00 0.00 0.00 35 987.3
20260504213157 25 171 0.0 0.0 0.00 0.00 0.00 34 987.2
20260504212656 25 171 0.0 1.6 0.00 0.00 0.00 35 987.2
20260504212157 25 172 0.0 1.6 0.00 0.00 0.00 34 987.2
20260504211151 25 267 0.0 1.6 0.00 0.00 0.00 35 987.2
20260504210654 25 267 0.0 1.6 0.00 0.00 0.00 34 987.2
20260504210149 25 267 0.0 1.6 0.00 0.00 0.00 35 987.2
20260504205647 25 267 0.0 0.0 0.00 0.00 0.00 35 987.3
20260504205147 25 266 0.0 0.0 0.00 0.00 0.00 35 987.3
20260504204647 25 266 0.0 1.6 0.00 0.00 0.00 33 987.2
20260504203142 26 263 0.0 1.6 0.00 0.00 0.00 33 987.3
20260504202639 26 264 0.0 1.6 0.00 0.00 0.00 33 987.4
20260504202140 26 263 0.0 1.6 0.00 0.00 0.00 34 987.5
20260504201637 26 267 0.0 1.6 0.00 0.00 0.00 34 987.6
20260504201136 26 267 0.0 1.6 0.00 0.00 0.00 33 987.7
20260504200635 26 243 0.0 1.6 0.00 0.00 0.00 32 987.7
20260504195633 26 267 0.0 1.6 0.00 0.00 0.00 32 987.8
20260504195132 26 267 0.0 1.6 0.00 0.00 0.00 33 987.9
20260504193620 26 267 0.0 1.6 0.00 0.00 0.00 31 988.3
20260504193114 26 223 0.0 1.6 0.00 0.00 0.00 32 988.5
20260504192113 26 220 0.0 1.6 0.00 0.00 0.00 32 988.7
20260504191613 26 228 0.0 0.0 0.00 0.00 0.00 34 988.7
20260504191113 26 228 0.0 1.6 0.00 0.00 0.00 33 988.8
20260504190113 26 226 0.0 3.2 0.00 0.00 0.00 33 988.8
20260504185615 26 251 0.0 1.6 0.00 0.00 0.00 32 988.9
20260504185113 26 259 0.0 1.6 0.00 0.00 0.00 33 989.0
20260504184611 26 267 0.0 1.6 0.00 0.00 0.00 34 989.1
20260504183112 25 252 0.0 1.6 0.00 0.00 0.00 33 989.2
20260504182611 25 243 0.0 1.6 0.00 0.00 0.00 32 989.4
20260504182112 26 255 0.0 1.6 0.00 0.00 0.00 32 989.4
20260504181109 26 231 0.0 0.0 0.00 0.00 0.00 33 989.6
20260504180608 26 171 0.0 3.2 0.00 0.00 0.00 33 989.8
20260504174546 25 238 0.0 1.6 0.00 0.00 0.00 34 990.1
20260504174039 25 267 0.0 0.0 0.00 0.00 0.00 36 990.0
20260504173533 25 267 0.0 0.0 0.00 0.00 0.00 37 990.2
20260504173028 25 267 0.0 1.6 0.00 0.00 0.00 36 990.3
20260504172520 24 265 0.0 1.6 0.00 0.00 0.00 36 990.3
20260504172016 24 172 0.0 1.6 0.00 0.00 0.00 34 990.4
20260504170457 23 237 0.0 1.6 0.00 0.00 0.00 37 990.7
20260504150745 20 267 0.0 0.0 0.00 0.00 0.00 41 992.0
20260504150246 20 266 0.0 0.0 0.00 0.00 0.00 42 992.1
20260504140735 17 267 0.0 1.6 0.00 0.00 0.00 44 992.5
20260504120227 10 231 0.0 0.0 0.00 0.00 0.00 69 993.1
20260504110511 -17 0.0 0.0 0.00 0.00 0.00 993.3
20260504100218 -17 0.0 0.0 0.00 0.00 0.00 993.4
20260504081511 -17 0.0 0.0 0.00 0.00 0.00 993.7
20260504081003 -17 0.0 0.0 0.00 0.00 0.00 993.6
20260504080413 7 0.0 0.0 0.00 0.00 0.00 73 993.6
20260504070237 6 231 0.0 0.0 0.00 0.00 0.00 74 993.7
20260504060211 6 231 0.0 0.0 0.00 0.00 0.00 76 994.1
20260504050705 6 231 0.0 0.0 0.00 0.00 0.00 69 994.3
20260504050207 6 231 0.0 0.0 0.00 0.00 0.00 70 994.3
20260504045203 6 231 0.0 0.0 0.00 0.00 0.00 70 994.4
20260504044706 6 232 0.0 0.0 0.00 0.00 0.00 69 994.4
20260504043702 6 231 0.0 0.0 0.00 0.00 0.00 67 994.5
20260504043202 7 231 0.0 0.0 0.00 0.00 0.00 66 994.5
20260504042703 7 231 0.0 0.0 0.00 0.00 0.00 68 994.4
20260504042202 7 232 0.0 0.0 0.00 0.00 0.00 67 994.4
20260504041701 7 232 0.0 0.0 0.00 0.00 0.00 67 994.4
20260504041202 7 231 0.0 0.0 0.00 0.00 0.00 66 994.4
20260504040201 7 231 0.0 0.0 0.00 0.00 0.00 66 994.4
20260504035701 7 231 0.0 0.0 0.00 0.00 0.00 65 994.3
20260504035202 7 232 0.0 0.0 0.00 0.00 0.00 64 994.3
20260504034702 7 232 0.0 0.0 0.00 0.00 0.00 63 994.2
20260504034201 7 232 0.0 0.0 0.00 0.00 0.00 64 994.1
20260504033201 7 231 0.0 0.0 0.00 0.00 0.00 63 994.2
20260504031703 8 232 0.0 0.0 0.00 0.00 0.00 64 994.1
20260504031203 8 232 0.0 0.0 0.00 0.00 0.00 64 994.1
20260504030703 8 231 0.0 0.0 0.00 0.00 0.00 65 994.1
20260504025658 8 232 0.0 0.0 0.00 0.00 0.00 65 994.1
20260504025152 8 231 0.0 0.0 0.00 0.00 0.00 65 994.0
20260504024646 8 232 0.0 0.0 0.00 0.00 0.00 64 994.0
20260504024140 8 232 0.0 0.0 0.00 0.00 0.00 63 993.9
20260504022621 9 232 0.0 0.0 0.00 0.00 0.00 60 993.8
20260504022116 9 231 0.0 0.0 0.00 0.00 0.00 59 993.7
20260504021609 9 231 0.0 0.0 0.00 0.00 0.00 58 993.7
20260504021106 9 232 0.0 0.0 0.00 0.00 0.00 55 993.6
20260504015606 10 231 0.0 0.0 0.00 0.00 0.00 54 993.6
20260504014105 10 232 0.0 0.0 0.00 0.00 0.00 52 993.5
20260504013604 10 232 0.0 0.0 0.00 0.00 0.00 52 993.5
20260504013104 10 231 0.0 0.0 0.00 0.00 0.00 53 993.5
20260504012602 11 231 0.0 0.0 0.00 0.00 0.00 52 993.5
20260504012101 11 232 0.0 0.0 0.00 0.00 0.00 50 993.4
20260504011601 11 231 0.0 0.0 0.00 0.00 0.00 47 993.3
20260504011102 11 231 0.0 0.0 0.00 0.00 0.00 47 993.3
20260504005603 11 232 0.0 0.0 0.00 0.00 0.00 46 993.3
20260504005057 12 232 0.0 0.0 0.00 0.00 0.00 45 993.2
20260504004052 12 232 0.0 0.0 0.00 0.00 0.00 44 993.2
20260504003551 12 232 0.0 0.0 0.00 0.00 0.00 44 993.2
20260504002552 13 232 0.0 0.0 0.00 0.00 0.00 40 993.2
20260504002050 13 232 0.0 0.0 0.00 0.00 0.00 40 993.1
20260504001550 13 232 0.0 0.0 0.00 0.00 0.00 39 993.2
20260504000548 14 231 0.0 0.0 0.00 0.00 0.00 37 993.1
20260504000048 14 232 0.0 0.0 0.00 0.00 0.00 37 993.1
20260503235549 14 232 0.0 0.0 0.00 0.00 0.00 36 993.0
20260503235047 15 231 0.0 0.0 0.00 0.00 0.00 35 992.9
20260503234548 15 231 0.0 0.0 0.00 0.00 0.00 35 992.8
20260503234048 15 231 0.0 0.0 0.00 0.00 0.00 34 992.9
20260503233549 15 231 0.0 0.0 0.00 0.00 0.00 33 992.9
20260503233049 15 231 0.0 0.0 0.00 0.00 0.00 33 992.9
20260503232547 15 231 0.0 0.0 0.00 0.00 0.00 32 992.8
20260503232049 15 232 0.0 0.0 0.00 0.00 0.00 33 992.7
20260503231549 16 231 0.0 0.0 0.00 0.00 0.00 32 992.7
20260503231049 16 231 0.0 0.0 0.00 0.00 0.00 32 992.7
20260503230549 16 231 0.0 0.0 0.00 0.00 0.00 33 992.7
20260503230048 16 231 0.0 0.0 0.00 0.00 0.00 31 992.7
20260503225548 16 231 0.0 1.6 0.00 0.00 0.00 30 992.7
20260503225049 16 231 0.0 1.6 0.00 0.00 0.00 31 992.6
20260503224549 16 231 0.0 1.6 0.00 0.00 0.00 31 992.6
20260503224047 16 231 0.0 0.0 0.00 0.00 0.00 32 992.5
20260503223548 16 231 0.0 0.0 0.00 0.00 0.00 31 992.5
20260503223049 17 231 0.0 0.0 0.00 0.00 0.00 30 992.5
20260503222544 17 238 0.0 1.6 0.00 0.00 0.00 31 992.6
20260503221544 17 237 0.0 1.6 0.00 0.00 0.00 30 992.7
20260503221043 17 237 0.0 1.6 0.00 0.00 0.00 31 992.8
20260503220542 17 237 0.0 0.0 0.00 0.00 0.00 32 992.8
20260503220039 17 233 0.0 0.0 0.00 0.00 0.00 30 992.8
20260503215539 17 233 0.0 1.6 0.00 0.00 0.00 32 992.7